| time (UTC) | temp F | wind direction | speed MPH | gust MPH | rain 1hr in | rain 24hr in | rain mn in | humidity % | barometer mb |
| 20260905211650 | 78 | 273 | 0.0 | 3.0 | 0.00 | 0.01 | 0.01 | 34 | 1021.7 |
| 20260905211146 | 77 | 238 | 0.0 | 3.0 | 0.00 | 0.01 | 0.01 | 35 | 1021.6 |
| 20260905210643 | 77 | 264 | 2.0 | 6.0 | 0.00 | 0.01 | 0.01 | 35 | 1021.8 |
| 20260905210142 | 76 | 314 | 5.0 | 7.0 | 0.00 | 0.01 | 0.01 | 35 | 1021.8 |
| 20260905205641 | 75 | 265 | 1.0 | 6.0 | 0.00 | 0.01 | 0.01 | 35 | 1021.8 |
| 20260905205141 | 77 | 245 | 1.0 | 4.0 | 0.00 | 0.01 | 0.01 | 35 | 1021.8 |
| 20260905204640 | 76 | 72 | 3.0 | 7.0 | 0.00 | 0.01 | 0.01 | 36 | 1021.8 |
| 20260905204136 | 75 | 5 | 2.0 | 4.0 | 0.00 | 0.01 | 0.01 | 38 | 1021.7 |
| 20260905203637 | 75 | 7 | 2.0 | 3.0 | 0.00 | 0.01 | 0.01 | 37 | 1022.0 |
| 20260905203132 | 75 | 358 | 3.0 | 9.0 | 0.00 | 0.01 | 0.01 | 37 | 1022.1 |
| 20260905202628 | 77 | 48 | 0.0 | 4.0 | 0.00 | 0.01 | 0.01 | 36 | 1022.1 |
| 20260905202123 | 74 | 260 | 1.0 | 4.0 | 0.00 | 0.01 | 0.01 | 38 | 1022.2 |
| 20260905201618 | 75 | 303 | 2.0 | 3.0 | 0.00 | 0.01 | 0.01 | 38 | 1022.0 |
| 20260905201118 | 75 | 340 | 4.0 | 4.0 | 0.00 | 0.01 | 0.01 | 38 | 1022.4 |
| 20260905200614 | 76 | 277 | 3.0 | 4.0 | 0.00 | 0.01 | 0.01 | 37 | 1022.2 |
| 20260905200109 | 75 | 330 | 4.0 | 6.0 | 0.00 | 0.01 | 0.01 | 38 | 1022.4 |
| 20260905195607 | 73 | 145 | 1.0 | 3.0 | 0.00 | 0.01 | 0.01 | 39 | 1022.3 |
| 20260905195103 | 72 | 266 | 1.0 | 7.0 | 0.00 | 0.01 | 0.01 | 41 | 1022.3 |
| 20260905194602 | 73 | 332 | 2.0 | 6.0 | 0.00 | 0.01 | 0.01 | 41 | 1022.4 |
| 20260905194102 | 74 | 314 | 4.0 | 7.0 | 0.00 | 0.01 | 0.01 | 40 | 1022.4 |
| 20260905193557 | 73 | 274 | 1.0 | 4.0 | 0.00 | 0.01 | 0.01 | 40 | 1022.5 |
| 20260905193052 | 73 | 339 | 4.0 | 8.0 | 0.00 | 0.01 | 0.01 | 41 | 1022.5 |
| 20260905192547 | 72 | 55 | 1.0 | 4.0 | 0.00 | 0.01 | 0.01 | 42 | 1022.5 |
| 20260905192044 | 72 | 291 | 1.0 | 4.0 | 0.00 | 0.01 | 0.01 | 41 | 1022.6 |
| 20260905191542 | 72 | 323 | 4.0 | 7.0 | 0.00 | 0.01 | 0.01 | 42 | 1022.6 |
| 20260905191042 | 73 | 334 | 3.0 | 8.0 | 0.00 | 0.01 | 0.01 | 43 | 1022.6 |
| 20260905190540 | 73 | 264 | 2.0 | 4.0 | 0.00 | 0.01 | 0.01 | 41 | 1022.6 |
| 20260905190039 | 72 | 355 | 4.0 | 9.0 | 0.00 | 0.01 | 0.01 | 43 | 1022.9 |
| 20260905185539 | 72 | 24 | 0.0 | 7.0 | 0.00 | 0.01 | 0.01 | 40 | 1022.8 |
| 20260905185038 | 72 | 290 | 3.0 | 6.0 | 0.00 | 0.01 | 0.01 | 43 | 1022.8 |
| 20260905184539 | 71 | 318 | 1.0 | 6.0 | 0.00 | 0.01 | 0.01 | 42 | 1022.8 |
| 20260905184038 | 71 | 333 | 6.0 | 11.0 | 0.00 | 0.01 | 0.01 | 43 | 1023.0 |
| 20260905183537 | 72 | 259 | 1.0 | 6.0 | 0.00 | 0.01 | 0.01 | 45 | 1022.8 |
| 20260905183033 | 72 | 260 | 2.0 | 6.0 | 0.00 | 0.01 | 0.01 | 45 | 1022.9 |
| 20260905182533 | 70 | 262 | 2.0 | 6.0 | 0.00 | 0.01 | 0.01 | 47 | 1023.2 |
| 20260905182032 | 71 | 319 | 3.0 | 7.0 | 0.00 | 0.01 | 0.01 | 46 | 1023.3 |
| 20260905181527 | 70 | 349 | 4.0 | 4.0 | 0.00 | 0.01 | 0.01 | 50 | 1023.2 |
| 20260905181026 | 70 | 12 | 5.0 | 6.0 | 0.00 | 0.01 | 0.01 | 50 | 1023.2 |
| 20260905180521 | 70 | 335 | 4.0 | 6.0 | 0.00 | 0.01 | 0.01 | 49 | 1023.4 |
| 20260905180017 | 70 | 304 | 2.0 | 4.0 | 0.00 | 0.01 | 0.01 | 50 | 1023.2 |
| 20260905175516 | 70 | 82 | 2.0 | 4.0 | 0.00 | 0.01 | 0.01 | 49 | 1023.3 |
| 20260905175012 | 68 | 325 | 2.0 | 4.0 | 0.00 | 0.01 | 0.01 | 51 | 1023.7 |
| 20260905174507 | 68 | 345 | 4.0 | 6.0 | 0.00 | 0.01 | 0.01 | 51 | 1023.4 |
| 20260905174003 | 68 | 332 | 1.0 | 3.0 | 0.00 | 0.01 | 0.01 | 53 | 1023.4 |
| 20260905173459 | 69 | 295 | 0.0 | 4.0 | 0.00 | 0.01 | 0.01 | 50 | 1023.2 |
| 20260905172954 | 68 | 326 | 3.0 | 6.0 | 0.00 | 0.01 | 0.01 | 51 | 1023.3 |
| 20260905172452 | 68 | 48 | 2.0 | 3.0 | 0.00 | 0.01 | 0.01 | 52 | 1023.3 |
| 20260905171948 | 67 | 316 | 3.0 | 4.0 | 0.00 | 0.01 | 0.01 | 56 | 1023.6 |
| 20260905171444 | 66 | 308 | 1.0 | 6.0 | 0.00 | 0.01 | 0.01 | 56 | 1023.7 |
| 20260905170940 | 66 | 340 | 4.0 | 8.0 | 0.00 | 0.01 | 0.01 | 57 | 1023.5 |
| 20260905170436 | 66 | 316 | 5.0 | 9.0 | 0.00 | 0.01 | 0.01 | 57 | 1023.5 |
| 20260905165936 | 66 | 280 | 2.0 | 7.0 | 0.00 | 0.01 | 0.01 | 56 | 1023.6 |
| 20260905165431 | 66 | 317 | 6.0 | 8.0 | 0.00 | 0.01 | 0.01 | 59 | 1023.4 |
| 20260905164926 | 65 | 353 | 4.0 | 6.0 | 0.00 | 0.01 | 0.01 | 61 | 1023.3 |
| 20260905164425 | 65 | 315 | 5.0 | 6.0 | 0.00 | 0.01 | 0.01 | 61 | 1023.5 |
| 20260905163920 | 64 | 312 | 1.0 | 6.0 | 0.00 | 0.01 | 0.01 | 61 | 1023.4 |
| 20260905163417 | 64 | 336 | 2.0 | 6.0 | 0.00 | 0.01 | 0.01 | 65 | 1023.6 |
| 20260905162913 | 64 | 310 | 4.0 | 4.0 | 0.00 | 0.01 | 0.01 | 64 | 1023.5 |
| 20260905162408 | 63 | 295 | 2.0 | 7.0 | 0.00 | 0.01 | 0.01 | 67 | 1023.3 |
| 20260905161903 | 63 | 320 | 4.0 | 6.0 | 0.00 | 0.01 | 0.01 | 67 | 1023.4 |
| 20260905161402 | 63 | 310 | 5.0 | 7.0 | 0.00 | 0.01 | 0.01 | 65 | 1023.2 |
| 20260905160900 | 63 | 297 | 2.0 | 3.0 | 0.00 | 0.01 | 0.01 | 66 | 1023.4 |
| 20260905160355 | 63 | 341 | 3.0 | 4.0 | 0.00 | 0.01 | 0.01 | 68 | 1023.3 |
| 20260905155855 | 62 | 285 | 2.0 | 3.0 | 0.00 | 0.01 | 0.01 | 71 | 1023.4 |
| 20260905155354 | 62 | 332 | 3.0 | 6.0 | 0.00 | 0.01 | 0.01 | 69 | 1023.5 |
| 20260905154853 | 61 | 294 | 2.0 | 4.0 | 0.00 | 0.01 | 0.01 | 72 | 1023.7 |
| 20260905154349 | 61 | 259 | 2.0 | 3.0 | 0.00 | 0.01 | 0.01 | 74 | 1023.6 |
| 20260905153844 | 61 | 327 | 4.0 | 6.0 | 0.00 | 0.01 | 0.01 | 72 | 1023.4 |
| 20260905153341 | 61 | 304 | 2.0 | 3.0 | 0.00 | 0.01 | 0.01 | 74 | 1023.6 |
| 20260905152840 | 60 | 326 | 3.0 | 6.0 | 0.00 | 0.01 | 0.01 | 76 | 1023.5 |
| 20260905152339 | 60 | 320 | 3.0 | 4.0 | 0.00 | 0.01 | 0.01 | 78 | 1023.4 |
| 20260905151835 | 59 | 324 | 3.0 | 4.0 | 0.00 | 0.01 | 0.01 | 80 | 1023.4 |
| 20260905151331 | 58 | 289 | 1.0 | 3.0 | 0.00 | 0.01 | 0.01 | 81 | 1023.5 |
| 20260905150830 | 58 | 330 | 2.0 | 4.0 | 0.00 | 0.01 | 0.01 | 82 | 1023.4 |
| 20260905150325 | 57 | 299 | 1.0 | 3.0 | 0.00 | 0.01 | 0.01 | 85 | 1023.4 |
| 20260905145822 | 56 | 357 | 2.0 | 4.0 | 0.00 | 0.01 | 0.01 | 87 | 1023.2 |
| 20260905145322 | 55 | 332 | 3.0 | 4.0 | 0.00 | 0.01 | 0.01 | 89 | 1023.3 |
| 20260905144821 | 54 | 320 | 2.0 | 3.0 | 0.00 | 0.01 | 0.01 | 90 | 1023.2 |
| 20260905144317 | 54 | 296 | 1.0 | 2.0 | 0.00 | 0.01 | 0.01 | 89 | 1023.2 |
| 20260905143815 | 54 | 275 | 1.0 | 2.0 | 0.00 | 0.01 | 0.01 | 90 | 1023.0 |
| 20260905143310 | 54 | 336 | 2.0 | 3.0 | 0.00 | 0.01 | 0.01 | 90 | 1023.0 |
| 20260905142809 | 54 | 356 | 2.0 | 6.0 | 0.00 | 0.01 | 0.01 | 90 | 1022.7 |
| 20260905142305 | 53 | 321 | 3.0 | 4.0 | 0.00 | 0.01 | 0.01 | 90 | 1023.2 |
| 20260905141759 | 53 | 336 | 3.0 | 4.0 | 0.00 | 0.01 | 0.01 | 90 | 1023.2 |
| 20260905141255 | 53 | 338 | 4.0 | 4.0 | 0.00 | 0.01 | 0.01 | 90 | 1023.2 |
| 20260905140751 | 53 | 313 | 6.0 | 8.0 | 0.00 | 0.01 | 0.01 | 90 | 1022.9 |
| 20260905140250 | 53 | 16 | 5.0 | 8.0 | 0.05 | 0.01 | 0.01 | 89 | 1022.6 |
| 20260905135749 | 53 | 13 | 5.0 | 8.0 | 0.05 | 0.01 | 0.01 | 89 | 1022.4 |
| 20260905135245 | 53 | 356 | 8.0 | 10.0 | 0.00 | 0.00 | 0.00 | 88 | 1022.6 |
| 20260905134745 | 53 | 326 | 8.0 | 10.0 | 0.00 | 0.00 | 0.00 | 89 | 1022.5 |
| 20260905134244 | 53 | 322 | 8.0 | 11.0 | 0.00 | 0.00 | 0.00 | 89 | 1022.6 |
| 20260905133739 | 53 | 323 | 7.0 | 9.0 | 0.00 | 0.00 | 0.00 | 88 | 1022.4 |
| 20260905133234 | 54 | 320 | 4.0 | 7.0 | 0.00 | 0.00 | 0.00 | 85 | 1023.0 |
| 20260905132733 | 55 | 331 | 4.0 | 8.0 | 0.00 | 0.00 | 0.00 | 80 | 1023.0 |
| 20260905132229 | 56 | 292 | 3.0 | 6.0 | 0.00 | 0.00 | 0.00 | 74 | 1023.6 |
| 20260905131724 | 55 | 295 | 6.0 | 8.0 | 0.00 | 0.00 | 0.00 | 73 | 1024.0 |
| 20260905131219 | 55 | 266 | 3.0 | 7.0 | 0.00 | 0.00 | 0.00 | 74 | 1023.8 |
| 20260905130714 | 55 | 310 | 7.0 | 10.0 | 0.00 | 0.00 | 0.00 | 74 | 1022.9 |
| 20260905130213 | 55 | 334 | 5.0 | 9.0 | 0.00 | 0.00 | 0.00 | 74 | 1022.4 |
| 20260905125708 | 55 | 348 | 5.0 | 8.0 | 0.00 | 0.00 | 0.00 | 74 | 1021.6 |
| 20260905125203 | 55 | 350 | 6.0 | 9.0 | 0.00 | 0.00 | 0.00 | 73 | 1021.4 |
| 20260905124700 | 55 | 340 | 8.0 | 10.0 | 0.00 | 0.00 | 0.00 | 74 | 1021.3 |
| 20260905124155 | 54 | 304 | 7.0 | 9.0 | 0.00 | 0.00 | 0.00 | 75 | 1021.4 |
| 20260905123650 | 54 | 319 | 7.0 | 11.0 | 0.00 | 0.00 | 0.00 | 75 | 1021.1 |
| 20260905123148 | 53 | 334 | 7.0 | 9.0 | 0.00 | 0.00 | 0.00 | 79 | 1021.1 |
| 20260905122647 | 53 | 317 | 2.0 | 2.0 | 0.00 | 0.00 | 0.00 | 80 | 1021.4 |
| 20260905122142 | 53 | 307 | 1.0 | 2.0 | 0.00 | 0.00 | 0.00 | 80 | 1021.6 |
| 20260905121636 | 53 | 300 | 0.0 | 1.0 | 0.00 | 0.00 | 0.00 | 79 | 1022.2 |
| 20260905121132 | 53 | 278 | 0.0 | 0.0 | 0.00 | 0.00 | 0.00 | 79 | 1022.1 |
| 20260905120631 | 53 | 286 | 0.0 | 0.0 | 0.00 | 0.00 | 0.00 | 78 | 1022.0 |
| 20260905120126 | 54 | 285 | 0.0 | 1.0 | 0.00 | 0.00 | 0.00 | 77 | 1022.3 |
| 20260905115625 | 54 | 309 | 1.0 | 4.0 | 0.00 | 0.00 | 0.00 | 77 | 1022.3 |
| 20260905115121 | 54 | 284 | 1.0 | 3.0 | 0.00 | 0.00 | 0.00 | 76 | 1022.3 |
| 20260905114620 | 54 | 266 | 2.0 | 4.0 | 0.00 | 0.00 | 0.00 | 75 | 1022.7 |
| 20260905114119 | 54 | 258 | 2.0 | 7.0 | 0.00 | 0.00 | 0.00 | 75 | 1022.6 |
| 20260905113614 | 54 | 291 | 4.0 | 6.0 | 0.00 | 0.00 | 0.00 | 75 | 1022.4 |
| 20260905113110 | 54 | 255 | 5.0 | 7.0 | 0.00 | 0.00 | 0.00 | 76 | 1022.2 |
| 20260905112604 | 53 | 273 | 2.0 | 7.0 | 0.00 | 0.00 | 0.00 | 76 | 1021.7 |
| 20260905112100 | 53 | 257 | 3.0 | 6.0 | 0.00 | 0.00 | 0.00 | 76 | 1021.6 |
| 20260905111554 | 53 | 290 | 2.0 | 4.0 | 0.00 | 0.00 | 0.00 | 76 | 1021.4 |
| 20260905111054 | 53 | 299 | 3.0 | 4.0 | 0.00 | 0.00 | 0.00 | 76 | 1021.2 |
| 20260905110553 | 53 | 302 | 2.0 | 3.0 | 0.00 | 0.00 | 0.00 | 76 | 1021.2 |
| 20260905110048 | 53 | 277 | 4.0 | 4.0 | 0.00 | 0.00 | 0.00 | 76 | 1021.5 |
| 20260905105548 | 53 | 270 | 3.0 | 6.0 | 0.00 | 0.00 | 0.00 | 76 | 1021.6 |
| 20260905105047 | 53 | 237 | 2.0 | 4.0 | 0.00 | 0.00 | 0.00 | 77 | 1021.5 |
| 20260905104544 | 53 | 258 | 3.0 | 3.0 | 0.00 | 0.00 | 0.00 | 77 | 1021.5 |
| 20260905104043 | 53 | 262 | 3.0 | 7.0 | 0.00 | 0.00 | 0.00 | 76 | 1021.4 |
| 20260905103538 | 53 | 272 | 3.0 | 4.0 | 0.00 | 0.00 | 0.00 | 76 | 1021.2 |
| 20260905103035 | 53 | 287 | 3.0 | 6.0 | 0.00 | 0.00 | 0.00 | 76 | 1021.1 |
| 20260905102530 | 53 | 251 | 5.0 | 7.0 | 0.00 | 0.00 | 0.00 | 75 | 1020.6 |
| 20260905102026 | 53 | 313 | 4.0 | 8.0 | 0.00 | 0.00 | 0.00 | 74 | 1020.8 |
| 20260905101525 | 53 | 275 | 4.0 | 7.0 | 0.00 | 0.00 | 0.00 | 74 | 1021.2 |
| 20260905101023 | 52 | 279 | 3.0 | 3.0 | 0.00 | 0.00 | 0.00 | 75 | 1020.8 |
| 20260905100520 | 52 | 278 | 2.0 | 4.0 | 0.00 | 0.00 | 0.00 | 75 | 1020.5 |
| 20260905100019 | 52 | 275 | 2.0 | 4.0 | 0.00 | 0.00 | 0.00 | 74 | 1020.6 |
| 20260905095514 | 52 | 274 | 3.0 | 4.0 | 0.00 | 0.00 | 0.00 | 73 | 1020.9 |
| 20260905095009 | 52 | 296 | 4.0 | 7.0 | 0.00 | 0.00 | 0.00 | 74 | 1020.8 |
| 20260905094504 | 51 | 311 | 4.0 | 6.0 | 0.00 | 0.00 | 0.00 | 75 | 1020.5 |
| 20260905094003 | 51 | 296 | 1.0 | 4.0 | 0.00 | 0.00 | 0.00 | 75 | 1020.6 |
| 20260905093458 | 52 | 302 | 3.0 | 4.0 | 0.00 | 0.00 | 0.00 | 75 | 1020.5 |
| 20260905092954 | 51 | 298 | 3.0 | 6.0 | 0.00 | 0.00 | 0.00 | 75 | 1020.8 |
| 20260905092449 | 51 | 286 | 2.0 | 4.0 | 0.00 | 0.00 | 0.00 | 76 | 1021.0 |
| 20260905091945 | 52 | 276 | 2.0 | 3.0 | 0.00 | 0.00 | 0.00 | 75 | 1021.0 |
| 20260905091444 | 51 | 245 | 2.0 | 2.0 | 0.00 | 0.00 | 0.00 | 74 | 1020.6 |
| 20260905090944 | 51 | 248 | 2.0 | 2.0 | 0.00 | 0.00 | 0.00 | 75 | 1020.9 |
| 20260905090439 | 51 | 262 | 0.0 | 0.0 | 0.00 | 0.00 | 0.00 | 75 | 1020.6 |
| 20260905085938 | 51 | 269 | 0.0 | 1.0 | 0.00 | 0.00 | 0.00 | 75 | 1020.4 |
| 20260905085438 | 52 | 278 | 2.0 | 3.0 | 0.00 | 0.00 | 0.00 | 74 | 1020.6 |
| 20260905084934 | 52 | 264 | 0.0 | 0.0 | 0.00 | 0.00 | 0.00 | 72 | 1020.5 |
| 20260905084433 | 53 | 264 | 0.0 | 0.0 | 0.00 | 0.00 | 0.00 | 74 | 1020.3 |
| 20260905083928 | 53 | 284 | 0.0 | 0.0 | 0.00 | 0.00 | 0.00 | 71 | 1020.3 |
| 20260905083424 | 53 | 294 | 0.0 | 0.0 | 0.00 | 0.00 | 0.00 | 71 | 1020.0 |
| 20260905082919 | 52 | 266 | 0.0 | 0.0 | 0.00 | 0.00 | 0.00 | 73 | 1020.2 |
| 20260905082415 | 53 | 174 | 0.0 | 2.0 | 0.00 | 0.00 | 0.00 | 72 | 1020.4 |
| 20260905081916 | 53 | 272 | 1.0 | 2.0 | 0.00 | 0.00 | 0.00 | 71 | 1019.9 |
| 20260905081411 | 53 | 296 | 1.0 | 1.0 | 0.00 | 0.00 | 0.00 | 70 | 1019.4 |
| 20260905080909 | 54 | 290 | 0.0 | 2.0 | 0.00 | 0.00 | 0.00 | 69 | 1019.3 |
| 20260905080409 | 55 | 318 | 1.0 | 2.0 | 0.00 | 0.00 | 0.00 | 68 | 1019.6 |
| 20260905075908 | 55 | 309 | 1.0 | 4.0 | 0.00 | 0.00 | 0.00 | 66 | 1019.8 |
| 20260905075403 | 55 | 336 | 2.0 | 3.0 | 0.00 | 0.00 | 0.00 | 66 | 1019.4 |
| 20260905074902 | 54 | 334 | 3.0 | 3.0 | 0.00 | 0.00 | 0.00 | 68 | 1019.9 |
| 20260905074358 | 54 | 304 | 2.0 | 3.0 | 0.00 | 0.00 | 0.00 | 68 | 1020.4 |
| 20260905073854 | 54 | 304 | 2.0 | 3.0 | 0.00 | 0.00 | 0.00 | 67 | 1020.5 |
| 20260905073349 | 54 | 275 | 1.0 | 3.0 | 0.00 | 0.00 | 0.00 | 69 | 1020.9 |
| 20260905072844 | 54 | 289 | 1.0 | 7.0 | 0.00 | 0.00 | 0.00 | 69 | 1021.0 |
| 20260905072338 | 54 | 260 | 1.0 | 6.0 | 0.00 | 0.00 | 0.00 | 69 | 1020.9 |
| 20260905071835 | 53 | 321 | 3.0 | 4.0 | 0.00 | 0.00 | 0.00 | 69 | 1021.1 |
| 20260905071326 | 54 | 304 | 2.0 | 3.0 | 0.00 | 0.00 | 0.00 | 68 | 1021.2 |
| 20260905070825 | 53 | 326 | 2.0 | 3.0 | 0.00 | 0.00 | 0.00 | 69 | 1021.0 |
| 20260905070322 | 53 | 316 | 2.0 | 3.0 | 0.00 | 0.00 | 0.00 | 69 | 1021.0 |
| 20260905065820 | 53 | 337 | 3.0 | 4.0 | 0.00 | 0.00 | 0.00 | 69 | 1020.6 |
| 20260905065319 | 53 | 336 | 3.0 | 4.0 | 0.00 | 0.00 | 0.00 | 69 | 1020.8 |
| 20260905064815 | 54 | 341 | 3.0 | 4.0 | 0.00 | 0.00 | 0.00 | 67 | 1020.3 |
| 20260905064310 | 54 | 324 | 2.0 | 3.0 | 0.00 | 0.00 | 0.00 | 68 | 1020.4 |
| 20260905063808 | 55 | 326 | 3.0 | 4.0 | 0.00 | 0.00 | 0.00 | 68 | 1020.3 |
| 20260905063305 | 55 | 340 | 4.0 | 7.0 | 0.00 | 0.00 | 0.00 | 67 | 1020.2 |
| 20260905062800 | 55 | 351 | 5.0 | 6.0 | 0.00 | 0.00 | 0.00 | 68 | 1020.0 |
| 20260905062255 | 55 | 328 | 2.0 | 4.0 | 0.00 | 0.00 | 0.00 | 67 | 1020.2 |
| 20260905061750 | 56 | 358 | 3.0 | 6.0 | 0.00 | 0.00 | 0.00 | 66 | 1020.1 |
| 20260905061250 | 56 | 342 | 5.0 | 8.0 | 0.00 | 0.00 | 0.00 | 66 | 1020.2 |
| 20260905060744 | 57 | 342 | 3.0 | 6.0 | 0.00 | 0.00 | 0.00 | 64 | 1020.1 |
| 20260905060241 | 57 | 2 | 4.0 | 6.0 | 0.00 | 0.00 | 0.00 | 64 | 1020.0 |
| 20260905055739 | 57 | 333 | 4.0 | 4.0 | 0.00 | 0.00 | 0.00 | 64 | 1019.9 |
| 20260905055235 | 57 | 317 | 3.0 | 6.0 | 0.00 | 0.00 | 0.00 | 62 | 1019.9 |
| 20260905054730 | 58 | 320 | 4.0 | 4.0 | 0.00 | 0.00 | 0.00 | 61 | 1020.1 |
| 20260905054226 | 58 | 352 | 4.0 | 6.0 | 0.00 | 0.00 | 0.00 | 61 | 1019.8 |
| 20260905053725 | 59 | 331 | 3.0 | 7.0 | 0.00 | 0.00 | 0.00 | 58 | 1019.9 |
| 20260905053221 | 59 | 337 | 5.0 | 8.0 | 0.00 | 0.00 | 0.00 | 58 | 1019.9 |
| 20260905052720 | 55 | 340 | 5.0 | 7.0 | 0.00 | 0.00 | 0.00 | 60 | 1019.7 |
| 20260905052215 | 57 | 298 | 0.0 | 0.0 | 0.00 | 0.00 | 0.00 | 57 | 1020.0 |
| 20260905051715 | 58 | 321 | 0.0 | 0.0 | 0.00 | 0.00 | 0.00 | 55 | 1019.7 |
| 20260905051212 | 58 | 316 | 0.0 | 2.0 | 0.00 | 0.00 | 0.00 | 55 | 1019.4 |
| 20260905050708 | 57 | 307 | 0.0 | 0.0 | 0.00 | 0.00 | 0.00 | 55 | 1019.7 |
| 20260905050205 | 57 | 315 | 0.0 | 0.0 | 0.00 | 0.00 | 0.00 | 55 | 1019.7 |
| 20260905045704 | 56 | 278 | 0.0 | 0.0 | 0.00 | 0.00 | 0.00 | 57 | 1019.7 |
| 20260905045159 | 57 | 346 | 0.0 | 0.0 | 0.00 | 0.00 | 0.00 | 55 | 1019.9 |
| 20260905044655 | 58 | 297 | 0.0 | 0.0 | 0.00 | 0.00 | 0.00 | 55 | 1019.9 |
| 20260905044149 | 57 | 326 | 0.0 | 0.0 | 0.00 | 0.00 | 0.00 | 55 | 1020.0 |
| 20260905043648 | 57 | 310 | 0.0 | 0.0 | 0.00 | 0.00 | 0.00 | 55 | 1019.7 |
| 20260905043143 | 57 | 276 | 0.0 | 0.0 | 0.00 | 0.00 | 0.00 | 55 | 1019.6 |
| 20260905042643 | 58 | 312 | 0.0 | 0.0 | 0.00 | 0.00 | 0.00 | 53 | 1019.2 |
| 20260905042137 | 57 | 47 | 0.0 | 0.0 | 0.00 | 0.00 | 0.00 | 53 | 1019.1 |
| 20260905041633 | 58 | 267 | 0.0 | 0.0 | 0.00 | 0.00 | 0.00 | 53 | 1019.4 |
| 20260905041128 | 58 | 280 | 0.0 | 0.0 | 0.00 | 0.00 | 0.00 | 53 | 1019.3 |
| 20260905040628 | 58 | 323 | 0.0 | 0.0 | 0.00 | 0.00 | 0.00 | 52 | 1019.2 |
| 20260905040127 | 59 | 289 | 0.0 | 0.0 | 0.00 | 0.00 | 0.00 | 52 | 1019.7 |
| 20260905035622 | 57 | 251 | 0.0 | 0.0 | 0.00 | 0.00 | 0.00 | 55 | 1020.1 |
| 20260905035119 | 59 | 282 | 0.0 | 0.0 | 0.00 | 0.00 | 0.00 | 52 | 1019.8 |
| 20260905034615 | 59 | 288 | 0.0 | 0.0 | 0.00 | 0.00 | 0.00 | 50 | 1019.2 |
| 20260905034114 | 58 | 270 | 0.0 | 0.0 | 0.00 | 0.00 | 0.00 | 53 | 1019.1 |
| 20260905033614 | 58 | 288 | 0.0 | 0.0 | 0.00 | 0.00 | 0.00 | 54 | 1018.8 |
| 20260905033110 | 58 | 300 | 0.0 | 0.0 | 0.00 | 0.00 | 0.00 | 52 | 1018.7 |
| 20260905032609 | 59 | 287 | 0.0 | 0.0 | 0.00 | 0.00 | 0.00 | 53 | 1018.5 |
| 20260905032109 | 59 | 248 | 0.0 | 0.0 | 0.00 | 0.00 | 0.00 | 51 | 1018.6 |
| 20260905031605 | 59 | 256 | 0.0 | 0.0 | 0.00 | 0.00 | 0.00 | 50 | 1018.4 |
| 20260905031105 | 60 | 259 | 0.0 | 0.0 | 0.00 | 0.00 | 0.00 | 50 | 1018.0 |
| 20260905030600 | 61 | 309 | 0.0 | 0.0 | 0.00 | 0.00 | 0.00 | 49 | 1018.1 |
| 20260905030055 | 60 | 337 | 1.0 | 2.0 | 0.00 | 0.00 | 0.00 | 49 | 1018.2 |
| 20260905025550 | 61 | 263 | 0.0 | 0.0 | 0.00 | 0.00 | 0.00 | 48 | 1018.7 |
| 20260905025046 | 61 | 299 | 0.0 | 0.0 | 0.00 | 0.00 | 0.00 | 48 | 1018.2 |
| 20260905024542 | 61 | 281 | 0.0 | 0.0 | 0.00 | 0.00 | 0.00 | 48 | 1017.9 |
| 20260905024037 | 62 | 228 | 0.0 | 0.0 | 0.00 | 0.00 | 0.00 | 46 | 1018.0 |
| 20260905023532 | 63 | 248 | 0.0 | 0.0 | 0.00 | 0.00 | 0.00 | 45 | 1017.9 |
| 20260905023032 | 64 | 332 | 0.0 | 2.0 | 0.00 | 0.00 | 0.00 | 45 | 1017.8 |
| 20260905022532 | 65 | 265 | 0.0 | 2.0 | 0.00 | 0.00 | 0.00 | 44 | 1017.7 |
| 20260905022027 | 65 | 343 | 1.0 | 2.0 | 0.00 | 0.00 | 0.00 | 43 | 1017.6 |
| 20260905021527 | 66 | 330 | 4.0 | 7.0 | 0.00 | 0.00 | 0.00 | 42 | 1017.7 |
| 20260905021022 | 66 | 345 | 3.0 | 7.0 | 0.00 | 0.00 | 0.00 | 42 | 1017.5 |
| 20260905020522 | 66 | 338 | 2.0 | 6.0 | 0.00 | 0.00 | 0.00 | 42 | 1017.4 |
| 20260905020018 | 66 | 339 | 4.0 | 6.0 | 0.00 | 0.00 | 0.00 | 42 | 1017.5 |
| 20260905015515 | 66 | 320 | 4.0 | 6.0 | 0.00 | 0.00 | 0.00 | 42 | 1017.6 |
| 20260905015015 | 66 | 358 | 2.0 | 3.0 | 0.00 | 0.00 | 0.00 | 42 | 1017.4 |
| 20260905014510 | 66 | 319 | 0.0 | 6.0 | 0.00 | 0.00 | 0.00 | 42 | 1017.0 |
| 20260905014006 | 66 | 329 | 3.0 | 4.0 | 0.00 | 0.00 | 0.00 | 42 | 1016.5 |
| 20260905013502 | 66 | 327 | 4.0 | 6.0 | 0.00 | 0.00 | 0.00 | 41 | 1016.7 |
| 20260905012957 | 67 | 325 | 2.0 | 4.0 | 0.00 | 0.00 | 0.00 | 41 | 1016.5 |
| 20260905012451 | 67 | 341 | 2.0 | 3.0 | 0.00 | 0.00 | 0.00 | 40 | 1016.3 |
| 20260905011948 | 68 | 331 | 1.0 | 6.0 | 0.00 | 0.00 | 0.00 | 40 | 1016.1 |
| 20260905011444 | 68 | 2 | 4.0 | 6.0 | 0.00 | 0.00 | 0.00 | 39 | 1016.1 |
| 20260905010939 | 69 | 345 | 4.0 | 7.0 | 0.00 | 0.00 | 0.00 | 38 | 1016.2 |
| 20260905010434 | 69 | 350 | 4.0 | 6.0 | 0.00 | 0.00 | 0.00 | 38 | 1015.9 |
| 20260905005930 | 70 | 345 | 3.0 | 6.0 | 0.00 | 0.00 | 0.00 | 37 | 1015.9 |
| 20260905005426 | 71 | 17 | 4.0 | 10.0 | 0.00 | 0.00 | 0.00 | 36 | 1015.6 |
| 20260905004926 | 72 | 299 | 10.0 | 16.0 | 0.00 | 0.00 | 0.00 | 36 | 1015.5 |
| 20260905004421 | 72 | 8 | 5.0 | 11.0 | 0.00 | 0.00 | 0.00 | 36 | 1015.4 |
| 20260905003917 | 72 | 340 | 4.0 | 10.0 | 0.00 | 0.00 | 0.00 | 36 | 1015.7 |
| 20260905003412 | 72 | 341 | 6.0 | 15.0 | 0.00 | 0.00 | 0.00 | 35 | 1015.6 |
| 20260905002908 | 72 | 308 | 6.0 | 9.0 | 0.00 | 0.00 | 0.00 | 35 | 1015.5 |
| 20260905002407 | 71 | 346 | 6.0 | 11.0 | 0.00 | 0.00 | 0.00 | 35 | 1015.6 |
| 20260905001907 | 72 | 313 | 3.0 | 9.0 | 0.00 | 0.00 | 0.00 | 35 | 1015.4 |
| 20260905001402 | 71 | 331 | 4.0 | 14.0 | 0.00 | 0.00 | 0.00 | 36 | 1015.3 |
| 20260905000857 | 72 | 316 | 7.0 | 16.0 | 0.00 | 0.00 | 0.00 | 35 | 1015.4 |
| 20260905000355 | 73 | 15 | 6.0 | 14.0 | 0.00 | 0.00 | 0.00 | 34 | 1015.5 |
| 20260904235848 | 74 | 320 | 6.0 | 14.0 | 0.00 | 0.00 | 0.00 | 34 | 1015.2 |
| 20260904235343 | 73 | 325 | 8.0 | 11.0 | 0.00 | 0.00 | 0.00 | 34 | 1015.3 |
| 20260904234843 | 72 | 17 | 8.0 | 15.0 | 0.00 | 0.00 | 0.00 | 34 | 1015.1 |
| 20260904234338 | 72 | 12 | 11.0 | 16.0 | 0.00 | 0.00 | 0.00 | 35 | 1015.6 |
| 20260904233834 | 72 | 6 | 6.0 | 13.0 | 0.00 | 0.00 | 0.00 | 35 | 1015.5 |
| 20260904233330 | 73 | 5 | 10.0 | 16.0 | 0.00 | 0.00 | 0.00 | 33 | 1015.4 |
| 20260904232826 | 72 | 348 | 11.0 | 14.0 | 0.00 | 0.00 | 0.00 | 34 | 1015.6 |
| 20260904232323 | 72 | 352 | 7.0 | 15.0 | 0.00 | 0.00 | 0.00 | 35 | 1015.7 |
| 20260904231818 | 73 | 4 | 9.0 | 13.0 | 0.00 | 0.00 | 0.00 | 34 | 1015.6 |
| 20260904231313 | 73 | 346 | 10.0 | 13.0 | 0.00 | 0.00 | 0.00 | 33 | 1015.7 |
| 20260904230808 | 73 | 2 | 9.0 | 15.0 | 0.00 | 0.00 | 0.00 | 34 | 1015.7 |
| 20260904230307 | 76 | 354 | 9.0 | 13.0 | 0.00 | 0.00 | 0.00 | 32 | 1015.9 |
| 20260904225802 | 76 | 344 | 9.0 | 15.0 | 0.00 | 0.00 | 0.00 | 32 | 1015.6 |
| 20260904225300 | 76 | 325 | 6.0 | 9.0 | 0.00 | 0.00 | 0.00 | 32 | 1015.5 |
| 20260904224800 | 74 | 355 | 5.0 | 10.0 | 0.00 | 0.00 | 0.00 | 33 | 1015.7 |
| 20260904224255 | 75 | 323 | 7.0 | 11.0 | 0.00 | 0.00 | 0.00 | 32 | 1015.5 |
| 20260904223755 | 75 | 350 | 7.0 | 15.0 | 0.00 | 0.00 | 0.00 | 32 | 1015.5 |
| 20260904223249 | 76 | 4 | 10.0 | 15.0 | 0.00 | 0.00 | 0.00 | 32 | 1015.4 |
| 20260904222746 | 77 | 336 | 9.0 | 14.0 | 0.00 | 0.00 | 0.00 | 31 | 1015.3 |
| 20260904222241 | 77 | 335 | 6.0 | 10.0 | 0.00 | 0.00 | 0.00 | 31 | 1015.1 |
| 20260904221741 | 76 | 312 | 7.0 | 11.0 | 0.00 | 0.00 | 0.00 | 33 | 1015.4 |
| 20260904221235 | 76 | 338 | 12.0 | 15.0 | 0.00 | 0.00 | 0.00 | 32 | 1015.3 |
| 20260904220730 | 76 | 336 | 8.0 | 14.0 | 0.00 | 0.00 | 0.00 | 32 | 1015.3 |
| 20260904220225 | 76 | 316 | 6.0 | 10.0 | 0.00 | 0.00 | 0.00 | 32 | 1015.2 |
| 20260904215725 | 76 | 315 | 9.0 | 13.0 | 0.00 | 0.00 | 0.00 | 32 | 1015.1 |
| 20260904215222 | 77 | 293 | 8.0 | 10.0 | 0.00 | 0.00 | 0.00 | 32 | 1015.3 |
| 20260904214722 | 76 | 331 | 11.0 | 14.0 | 0.00 | 0.00 | 0.00 | 31 | 1015.2 |
| 20260904214218 | 76 | 316 | 8.0 | 10.0 | 0.00 | 0.00 | 0.00 | 32 | 1015.3 |
| 20260904213715 | 77 | 324 | 6.0 | 13.0 | 0.00 | 0.00 | 0.00 | 32 | 1015.3 |
| 20260904213212 | 76 | 333 | 6.0 | 10.0 | 0.00 | 0.00 | 0.00 | 32 | 1015.2 |
| 20260904212712 | 76 | 304 | 6.0 | 16.0 | 0.00 | 0.00 | 0.00 | 32 | 1015.3 |
| 20260904212208 | 77 | 256 | 8.0 | 10.0 | 0.00 | 0.00 | 0.00 | 32 | 1015.2 |